Regional Weather Roundup
Issued by NWS

Home | Current Version | Previous Version | Graphics & Text | Print | Product List | Glossary On
Versions: 1 2 3 4 5 6 7 8 9 10 11 12 13 14 15 16 17 18 19 20 21 22 23 24 25 26 27 28 29 30 31 32 33 34 35 36 37 38 39 40 41 42 43 44 45 46 47 48 49
000
ASUS43 KDMX 291507
RWRIA

WEATHER ROUNDUP FOR IOWA
NATIONAL WEATHER SERVICE DES MOINES IA
1000 AM CDT SAT AUG 29 2015

NOTE: "FAIR" INDICATES FEW OR NO CLOUDS BELOW 12,000 FEET WITH NO
SIGNIFICANT WEATHER AND/OR OBSTRUCTIONS TO VISIBILITY.

* - THESE STATIONS ARE NOT NWS STATIONS...THUS NOT UNDER NWS
QUALITY CONTROL.  THEY ALSO DO NOT REPORT WEATHER SUCH
AS PRECIPITATION OR FOG.

IAZ001>003-012>014-020>022-031>034-043>046-291600-
   NORTHWEST IOWA

CITY           SKY/WX    TMP DP  RH WIND       PRES   REMARKS
CARROLL *      CLOUDY    63  63 100 NE10      30.05R
CHEROKEE *     CLOUDY    59  59 100 CALM      30.08S FOG
DENISON *      CLOUDY    61  59  94 N6        30.05R
LE MARS *      CLOUDY    59  57  94 CALM      30.09S
ORANGE CITY *  FOG       57  57 100 CALM      30.08S VSB 1
SHELDON *      CLOUDY    57  57 100 CALM      30.07S FOG
SIOUX CITY     CLOUDY    62  57  83 CALM      30.08S
SPENCER        CLOUDY    59  57  93 E3        30.08S FOG
STORM LAKE *   CLOUDY    59  59 100 N6        30.09R FOG
$$

IAZ055>058-069>071-079>083-090>094-291600-
   SOUTHWEST IOWA

CITY           SKY/WX    TMP DP  RH WIND       PRES   REMARKS
ATLANTIC *     CLOUDY    64  63  94 N8        30.05R
AUDUBON *      CLOUDY    64  61  88 N6        30.06R
CLARINDA *     CLOUDY    64  63  94 N6        30.05S
COUNCIL BLFS * CLOUDY    61  59  94 N8        30.07R
CRESTON *      CLOUDY    64  63  94 N7        30.05R
HARLAN  *      CLOUDY    63 N/A N/A NE7       30.09R
LAMONI         CLOUDY    67  64  90 N9        30.01S
RED OAK *      CLOUDY    63  61  94 N7        30.05R
SHENANDOAH *   CLOUDY    63  61  94 N8        30.06R
$$

IAZ047>049-059>061-072>074-084-291600-
   CENTRAL IOWA

CITY           SKY/WX    TMP DP  RH WIND       PRES   REMARKS
AMES           CLOUDY    64  62  93 N8        30.04R
ANKENY *       CLOUDY    64  64 100 N7        30.02R
CHARITON *     CLOUDY    66  64  94 NW10      30.01S
DES MOINES     CLOUDY    66  61  84 N7        30.02R
GRINNELL*      CLOUDY    66  64  94 N7        30.02R FOG
KNOXVILLE *    CLOUDY    64  63  94 NW10      30.00R
MARSHALLTOWN   CLOUDY    66  64  93 N7        30.02R
PELLA *        CLOUDY    66  66 100 N5        30.02R FOG
PERRY *        CLOUDY    64  63  94 N7        30.04S
$$

IAZ004>006-015-016-023>025-035-036-291600-
   NORTH CENTRAL IOWA

CITY           SKY/WX    TMP DP  RH WIND       PRES   REMARKS
ALGONA *       FOG       59  59 100 NE6       30.09R VSB 1/2
CLARION *      CLOUDY    63  61  94 NE7G13    30.06R
ESTHERVILLE    FOG       57  57 100 N5        30.08R VSB 3/4
FORT DODGE *   CLOUDY    61  57  88 N6        30.07R
MASON CITY     CLOUDY    63  61  93 NE9       30.07S
FOREST CITY *  CLOUDY    61  61 100 NE6       30.07R
IOWA FALLS *   CLOUDY    63  63 100 N5        30.06R FOG
$$

IAZ007>011-017>019-026>030-037>042-050>054-066-291600-
   NORTHEAST IOWA

CITY           SKY/WX    TMP DP  RH WIND       PRES   REMARKS
CEDAR RAPIDS   CLOUDY    68  67  96 N9        30.00R FOG
CHARLES CITY * CLOUDY    63  63 100 NE6       30.06R
CLINTON *      CLOUDY    66  64  94 CALM      30.02R
DECORAH *      CLOUDY    61  61 100 N7        30.03F
DUBUQUE        CLOUDY    67  65  93 N7        30.02R FOG
MONTICELLO *   PTSUNNY   70  66  88 N5        30.00R
OELWEIN *      CLOUDY    64  63  94 NE8G15    30.04R
WATERLOO       CLOUDY    65  62  90 N12       30.02R
$$

IAZ064-065-067-068-078-291600-
   EAST CENTRAL IOWA

CITY           SKY/WX    TMP DP  RH WIND       PRES   REMARKS
DAVENPORT      CLOUDY    69  65  86 CALM      30.00R
IOWA CITY      CLOUDY    68  68 100 NW3       30.00R FOG
MT. PLEASANT * CLOUDY    73  63  68 SW3       29.99R
MUSCATINE *    CLOUDY    72  64  78 CALM      29.99R
QUAD CITIES    CLOUDY    70  64  81 CALM      29.99R
$$

IAZ062-063-075>077-085>089-095>099-291600-
   SOUTHEAST IOWA

CITY           SKY/WX    TMP DP  RH WIND       PRES   REMARKS
BURLINGTON     CLOUDY    71  65  81 SW6       29.99R
FAIRFIELD *    CLOUDY    70  66  88 W5        29.99R FOG
FORT MADISON * CLOUDY    72  64  78 SW3       30.00R
KEOKUK *       CLOUDY    73  64  73 SW9       29.98R
OSKALOOSA *    CLOUDY    68  68 100 NW7       30.00R FOG
CENTERVILLE *  CLOUDY    68  66  94 NW6       30.01R
OTTUMWA        CLOUDY    69  69 100 W8        29.97S FOG
WASHINGTON *     N/A    N/A N/A N/A MISG        N/A
$$

ABBREVIATIONS USED IN REMARKS
   TC - TEMPERATURES IN CELSIUS
  WCI - WIND CHILL INDEX
   HX - HEAT INDEX
  VSB - VISIBILITY
$$




USA.gov is the U.S. government's official web portal to all federal, state and local government web resources and services.